Location: St. Andrews
(45.0670°N, 67.0330°W)
Time: 22:52:52
(UTC-03:00)

Amateur Radio Satellites - All Passes

Search period start: 31 August 2015 22:22
Search period end: 01 September 2015 22:22
Location: St. Andrews, 45.0670°N, 67.0330°W

Satellite Date Start Highest point End Downlink Frequencies (MHz)
Time Altitude Azimuth
STRAND 1 31 Aug 22:27:27 22:30:16 15° 301° (WNW) 22:32:52 437.568
AAUSAT CUBESAT 2 31 Aug 22:27:58 22:31:33 26° 266° (W) 22:35:05 437.432
CUBEBUG 2 31 Aug 22:40:45 22:45:10 42° 263° (W) 22:49:41 437.445
ZACube-1 31 Aug 22:41:19 22:45:51 66° 259° (WSW) 22:50:28 437.345
VELOX 1 31 Aug 22:41:26 22:44:43 21° 65° (ENE) 22:48:08 145.980
BEESAT 3 31 Aug 22:42:06 22:43:56 13° 32° (NNE) 22:45:53 437.485
FUNcube-1 31 Aug 22:46:51 22:51:21 60° 260° (W) 22:55:54 145.935
UWE-3 31 Aug 22:48:03 22:52:27 44° 262° (W) 22:56:57 435.000/436.395/437.385
CINEMA 3 31 Aug 22:50:53 22:54:11 18° 272° (W) 22:57:25 145.822/145.860
TIGRISAT 31 Aug 22:52:10 22:54:12 13° 87° (E) 22:56:26 435.000
DELFI C3 31 Aug 22:52:37 22:56:31 45° 261° (W) 23:00:26 145.870
BEESAT 2 31 Aug 22:53:53 22:55:46 13° 32° (NNE) 22:57:46 435.950
ANTELSAT 31 Aug 23:08:13 23:11:32 20° 90° (E) 23:14:54 437.575/2403.000
Cosmos 2504 31 Aug 23:13:22 23:20:14 32° 83° (E) 23:27:35 435.465 / 435.565
DX 1 31 Aug 23:26:42 23:31:03 86° 261° (W) 23:35:25 434.975-435.025
HUMSAT D 31 Aug 23:27:49 23:32:03 51° 261° (W) 23:36:18 437.325/437.525
50 SAT 31 Aug 23:32:03 23:36:01 80° 75° (ENE) 23:40:00 437.505
POLYITAN 1 31 Aug 23:34:19 23:36:19 13° 88° (E) 23:38:31 437.675
ESTCUBE 1 31 Aug 23:34:40 23:39:01 54° 72° (ENE) 23:43:25 437.505/2401.250
AUBIESAT-1 31 Aug 23:35:53 23:38:29 17° 95° (E) 23:41:02 437.475
POPSAT HIP 1 31 Aug 23:36:51 23:38:59 14° 88° (E) 23:41:18 437.405
DUCHIFAT 1 31 Aug 23:37:30 23:39:31 13° 88° (E) 23:41:44 145.980
Oscar 11 31 Aug 23:38:06 23:39:57 12° 273° (W) 23:41:34 145.826/435.025
UKube-1 31 Aug 23:39:33 23:43:51 70° 258° (WSW) 23:48:11 .
M-CUBED/EXP-1 PRIME 31 Aug 23:40:40 23:43:54 23° 98° (E) 23:46:57 437.505
SPROUT 31 Aug 23:46:31 23:49:34 20° 65° (ENE) 23:52:45 437.525
BUGSAT 1 31 Aug 23:47:04 23:47:27 10° 86° (E) 23:48:06 437.445
AISAT 31 Aug 23:48:16 23:52:41 80° 257° (WSW) 23:57:08 437.250
CUBEBUG 1 31 Aug 23:49:18 23:53:33 62° 73° (ENE) 23:57:53 437.445
QB50P2 31 Aug 23:52:56 23:56:10 21° 92° (E) 23:59:31 145.880/145.840
NANOSAT C BR1 31 Aug 23:54:03 23:57:15 21° 92° (E) 00:00:32 145.865
UNISAT 6 31 Aug 23:58:19 00:02:54 64° 101° (E) 00:07:21 437.425
RS-15 31 Aug 23:59:32 00:10:20 42° 31° (NNE) 00:21:40 29.354- 29.394
QB50P1 01 Sep 00:07:18 00:11:02 29° 95° (E) 00:14:48 145.935-145.965
CUSAT 1 01 Sep 00:11:35 00:14:50 24° 85° (E) 00:18:58 437.405
VELOX 1 01 Sep 00:16:51 00:21:02 42° 262° (W) 00:25:15 145.980
BEESAT 3 01 Sep 00:18:35 00:22:38 70° 53° (NE) 00:26:37 437.485
YUBILEINY 01 Sep 00:23:22 00:29:48 21° 303° (WNW) 00:35:55 435.215
TIGRISAT 01 Sep 00:26:57 00:31:33 69° 286° (WNW) 00:36:00 435.000
BEESAT 2 01 Sep 00:30:31 00:34:36 70° 53° (NE) 00:38:36 435.950
DANDE 01 Sep 00:39:16 00:42:13 24° 86° (E) 00:45:58 436.750
ANTELSAT 01 Sep 00:44:11 00:48:35 45° 289° (WNW) 00:52:51 437.575/2403.000
TISAT 1 01 Sep 00:49:36 00:53:40 50° 72° (ENE) 00:57:48 437.305
Cosmos 2504 01 Sep 01:03:54 01:11:59 61° 284° (WNW) 01:20:29 435.465 / 435.565
ITUPSAT 1 01 Sep 01:05:52 01:08:44 16° 61° (ENE) 01:11:46 437.325
AIST 2 01 Sep 01:06:21 01:10:17 37° 47° (NE) 01:14:10 435.215
POLYITAN 1 01 Sep 01:08:25 01:12:42 63° 286° (WNW) 01:16:56 437.675
AUBIESAT-1 01 Sep 01:09:43 01:13:29 39° 296° (WNW) 01:16:56 437.475
POPSAT HIP 1 01 Sep 01:11:02 01:15:18 60° 287° (WNW) 01:19:31 437.405
DUCHIFAT 1 01 Sep 01:11:32 01:15:47 61° 287° (WNW) 01:20:00 145.980
ESTCUBE 1 01 Sep 01:13:21 01:16:16 16° 270° (W) 01:19:02 437.505/2401.250
M-CUBED/EXP-1 PRIME 01 Sep 01:15:09 01:18:46 30° 298° (WNW) 01:22:04 437.505
BUGSAT 1 01 Sep 01:19:16 01:23:33 79° 285° (WNW) 01:27:48 437.445
SPROUT 01 Sep 01:21:15 01:25:22 44° 262° (W) 01:29:31 437.525
CUBEBUG 1 01 Sep 01:28:11 01:30:25 13° 272° (W) 01:32:26 437.445
QB50P2 01 Sep 01:28:12 01:32:14 38° 290° (WNW) 01:36:12 145.880/145.840
NANOSAT C BR1 01 Sep 01:29:14 01:33:16 39° 290° (WNW) 01:37:14 145.865
UNISAT 6 01 Sep 01:36:20 01:39:11 16° 298° (WNW) 01:41:51 437.425
BEESAT 01 Sep 01:37:34 01:41:44 31° 67° (ENE) 01:45:58 436.000
SO-50 01 Sep 01:37:59 01:42:23 38° 117° (ESE) 01:46:57 436.795
QB50P1 01 Sep 01:43:08 01:46:52 29° 292° (WNW) 01:50:32 145.935-145.965
CUSAT 1 01 Sep 01:53:17 01:57:05 34° 293° (WNW) 02:01:59 437.405
BEESAT 3 01 Sep 01:58:17 02:00:03 12° 249° (WSW) 02:01:38 437.485
Oscar 19 01 Sep 02:00:34 02:04:27 21° 91° (E) 02:08:27 437.125/150
SWISSCUBE 01 Sep 02:02:56 02:07:35 58° 73° (ENE) 02:12:18 437.505
BEESAT 2 01 Sep 02:10:18 02:12:08 12° 250° (WSW) 02:13:46 435.950
RS-15 01 Sep 02:12:19 02:24:10 82° 238° (WSW) 02:36:24 29.354- 29.394
DANDE 01 Sep 02:22:03 02:25:16 25° 296° (WNW) 02:29:15 436.750
TISAT 1 01 Sep 02:27:05 02:29:46 16° 270° (W) 02:32:19 437.305
STARS 01 Sep 02:32:22 02:33:57 12° 60° (ENE) 02:35:44 437.465
PCSat 01 Sep 02:38:40 02:43:55 56° 117° (ESE) 02:49:15 145.827
ITUPSAT 1 01 Sep 02:41:24 02:46:09 68° 257° (WSW) 02:50:55 437.325
Gurwin Techsat 1B 01 Sep 02:42:06 02:45:23 17° 88° (E) 02:48:51 435.225
AIST 2 01 Sep 02:45:12 02:48:42 26° 245° (WSW) 02:52:06 435.215
KKS-1 01 Sep 02:48:38 02:52:21 27° 67° (ENE) 02:56:09 437.445
ITAMSAT 1 01 Sep 02:59:39 03:03:14 19° 90° (E) 03:06:59 435.822/435.867
Cosmos 2504 01 Sep 03:02:11 03:06:31 14° 309° (NW) 03:10:26 435.465 / 435.565
JAS-2 01 Sep 03:07:17 03:11:37 18° 82° (E) 03:15:56 435.910
GONETS M04 01 Sep 03:10:24 03:18:34 50° 89° (E) 03:26:53
BEESAT 01 Sep 03:15:17 03:19:34 32° 265° (W) 03:23:48 436.000
SO-50 01 Sep 03:18:30 03:22:59 36° 317° (NW) 03:27:32 436.795
Oscar 19 01 Sep 03:39:06 03:44:10 53° 290° (WNW) 03:49:12 437.125/150
SWISSCUBE 01 Sep 03:42:44 03:45:53 17° 270° (W) 03:48:53 437.505
Cosmos 2499 01 Sep 03:59:22 04:06:08 28° 82° (E) 04:13:24 435.465 / 435.565
STARS 01 Sep 04:05:21 04:09:47 85° 259° (W) 04:14:16 437.465
VERMONT LUNAR 01 Sep 04:17:44 04:19:22 14° 157° (SSE) 04:21:01 437.305
AO-7 01 Sep 04:18:24 04:24:45 25° 90° (E) 04:31:21 29.400- 29.500
Gurwin Techsat 1B 01 Sep 04:20:39 04:25:58 69° 287° (WNW) 04:31:14 435.225
PCSat 01 Sep 04:23:03 04:27:42 28° 317° (NW) 04:32:20 145.827
KKS-1 01 Sep 04:24:51 04:28:53 33° 264° (W) 04:32:56 437.445
RS-15 01 Sep 04:26:28 04:35:12 23° 258° (WSW) 04:43:26 29.354- 29.394
MOZHAYETS 4 01 Sep 04:37:22 04:41:50 51° 72° (ENE) 04:46:19
ITAMSAT 1 01 Sep 04:38:05 04:43:11 59° 289° (WNW) 04:48:17 435.822/435.867
JAS-2 01 Sep 04:50:41 04:57:53 85° 286° (WNW) 05:04:11 435.910
O/OREOS (USA 219) 01 Sep 05:01:10 05:05:36 44° 60° (ENE) 05:10:00 437.305
SO-50 01 Sep 05:03:27 05:05:01 11° 339° (NNW) 05:06:28 436.795
GONETS M04 01 Sep 05:07:35 05:15:41 40° 291° (WNW) 05:23:44
HORYU 2 01 Sep 05:24:58 05:29:25 61° 101° (E) 05:33:49 437.375
Cosmos 2499 01 Sep 05:50:07 05:58:37 70° 282° (WNW) 06:07:31 435.465 / 435.565
VERMONT LUNAR 01 Sep 05:52:37 05:55:18 30° 172° (S) 05:57:59 437.305
Gurwin Techsat 1B 01 Sep 06:03:24 06:05:04 11° 305° (NW) 06:06:28 435.225
AO-7 01 Sep 06:10:10 06:18:30 78° 291° (WNW) 06:26:46 29.400- 29.500
MOZHAYETS 4 01 Sep 06:16:08 06:19:23 18° 270° (W) 06:22:30
Cubesat XI-IV 01 Sep 06:21:20 06:22:19 11° 84° (E) 06:23:41 437.490
STRAND 1 01 Sep 06:26:58 06:30:44 22° 63° (ENE) 06:34:37 437.568
CUBESAT XI-V 01 Sep 06:31:32 06:36:05 69° 75° (ENE) 06:40:40 437.345
YUBILEINY 01 Sep 06:36:39 06:39:27 12° 47° (NE) 06:42:51 435.215
JAS-2 01 Sep 06:37:06 06:41:52 19° 307° (NW) 06:46:06 435.910
PHONESAT 2.4 01 Sep 06:39:39 06:42:01 18° 158° (SSE) 06:44:26 2401.200-2431.200
O/OREOS (USA 219) 01 Sep 06:41:13 06:44:46 21° 257° (WSW) 06:48:11 437.305
PRISM 01 Sep 06:53:31 06:56:36 21° 66° (ENE) 06:59:47 437.425
HORYU 2 01 Sep 07:02:48 07:05:36 16° 298° (WNW) 07:08:15 437.375
CUTE-I 01 Sep 07:03:32 07:07:59 27° 93° (E) 07:12:31 437.470
VERMONT LUNAR 01 Sep 07:28:43 07:31:22 29° 189° (S) 07:34:01 437.305
BRITE-PL 01 Sep 07:42:56 07:45:52 15° 86° (E) 07:49:07 437.365/2234.400
Cosmos 2499 01 Sep 07:48:18 07:53:50 17° 307° (NW) 07:59:04 435.465 / 435.565
Cubesat XI-IV 01 Sep 07:58:03 08:03:24 81° 102° (ESE) 08:08:45 437.490
AO-7 01 Sep 08:04:18 08:10:11 21° 312° (NW) 08:15:45 29.400- 29.500
STRAND 1 01 Sep 08:04:36 08:09:37 54° 260° (W) 08:14:37 437.568
GOMX 1 01 Sep 08:10:27 08:13:35 16° 86° (E) 08:16:59 467.674
CUBESAT XI-V 01 Sep 08:11:45 08:14:06 13° 273° (W) 08:16:14 437.345
PHONESAT 2.4 01 Sep 08:16:16 08:19:25 36° 174° (S) 08:22:35 2401.200-2431.200
DOVE 4 01 Sep 08:23:38 08:25:36 12° 84° (E) 08:27:51 437.250
SO-50 01 Sep 08:27:47 08:30:40 15° 28° (NNE) 08:33:38 436.795
PRISM 01 Sep 08:28:04 08:31:51 36° 262° (W) 08:35:38 437.425
YUBILEINY 01 Sep 08:30:25 08:39:03 54° 74° (ENE) 08:47:38 435.215
CUTE-I 01 Sep 08:43:13 08:48:15 43° 292° (WNW) 08:53:15 437.470
AIST 1 01 Sep 08:44:41 08:48:49 54° 95° (E) 08:53:01
Cosmos 2504 01 Sep 08:58:46 09:01:43 12° 48° (NE) 09:05:10 435.465 / 435.565
HO-68 01 Sep 09:02:46 09:08:30 26° 91° (E) 09:14:24 435.675
CUTE 1.7 + AOD 2 01 Sep 09:03:02 09:05:31 16° 89° (E) 09:08:08 437.475
VERMONT LUNAR 01 Sep 09:05:55 09:07:16 12° 205° (SSW) 09:08:34 437.305
CINEMA 3 01 Sep 09:06:42 09:08:55 13° 85° (E) 09:11:22 145.822/145.860
CANX-2 01 Sep 09:16:24 09:19:49 24° 93° (E) 09:23:16 2200.000
BRITE-PL 01 Sep 09:19:32 09:25:03 85° 285° (WNW) 09:30:46 437.365/2234.400
Cosmos 2491 01 Sep 09:20:34 09:28:45 49° 89° (E) 09:37:02 435.465 / 435.565
SEEDS 01 Sep 09:37:06 09:40:43 28° 94° (E) 09:44:21 437.485
Cubesat XI-IV 01 Sep 09:39:37 09:42:55 16° 301° (WNW) 09:46:04 437.490
PCSat 01 Sep 09:42:06 09:45:27 16° 33° (NNE) 09:48:53 145.827
Oscar 11 01 Sep 09:46:43 09:47:44 11° 86° (E) 09:49:00 145.826/435.025
GOMX 1 01 Sep 09:46:53 09:52:21 79° 285° (WNW) 09:57:51 467.674
TIGRISAT 01 Sep 09:52:30 09:55:26 17° 62° (ENE) 09:58:31 435.000
PHONESAT 2.4 01 Sep 09:53:52 09:56:57 32° 191° (S) 10:00:01 2401.200-2431.200
COMPASS 1 01 Sep 09:58:14 10:02:06 37° 97° (E) 10:05:58 437.405
DOVE 4 01 Sep 09:58:49 10:04:11 87° 108° (ESE) 10:09:29 437.250
SO-50 01 Sep 10:07:20 10:12:16 60° 50° (NE) 10:17:05 436.795
ISS 01 Sep 10:07:42 10:10:56 69° 147° (SSE) 10:14:11 145.825
AAUSAT CUBESAT 2 01 Sep 10:08:05 10:11:59 40° 97° (E) 10:15:53 437.432
ANTELSAT 01 Sep 10:08:49 10:12:33 25° 66° (ENE) 10:16:24 437.575/2403.000
AUBIESAT-1 01 Sep 10:23:23 10:27:45 39° 65° (ENE) 10:32:04 437.475
AIST 1 01 Sep 10:24:27 10:26:55 15° 294° (WNW) 10:29:14
YUBILEINY 01 Sep 10:27:44 10:35:37 37° 275° (W) 10:43:19 435.215
ZACube-1 01 Sep 10:28:47 10:32:12 21° 91° (E) 10:35:40 437.345
M-CUBED/EXP-1 PRIME 01 Sep 10:28:48 10:33:26 51° 66° (ENE) 10:38:00 437.505
POLYITAN 1 01 Sep 10:29:31 10:31:45 14° 62° (ENE) 10:34:09 437.675
CUBEBUG 2 01 Sep 10:29:51 10:34:13 37° 96° (E) 10:38:29 437.445
DELFI C3 01 Sep 10:30:02 10:32:57 20° 92° (E) 10:35:57 145.870
POPSAT HIP 1 01 Sep 10:31:53 10:34:10 15° 62° (ENE) 10:36:37 437.405
DUCHIFAT 1 01 Sep 10:32:05 10:34:15 14° 62° (ENE) 10:36:35 145.980
FUNcube-1 01 Sep 10:33:53 10:37:27 23° 92° (E) 10:41:02 145.935
UWE-3 01 Sep 10:36:05 10:40:15 33° 95° (E) 10:44:21 435.000/436.395/437.385
CUTE 1.7 + AOD 2 01 Sep 10:37:39 10:41:47 50° 287° (WNW) 10:45:51 437.475
BUGSAT 1 01 Sep 10:39:52 10:40:11 10° 60° (ENE) 10:40:42 437.445
CINEMA 3 01 Sep 10:41:46 10:46:50 80° 285° (WNW) 10:51:44 145.822/145.860
CUSAT 1 01 Sep 10:42:31 10:49:29 38° 68° (ENE) 10:57:05 437.405
QB50P2 01 Sep 10:47:54 10:51:06 22° 66° (ENE) 10:54:26 145.880/145.840
Cosmos 2504 01 Sep 10:48:08 10:56:30 55° 74° (ENE) 11:04:24 435.465 / 435.565
NANOSAT C BR1 01 Sep 10:48:39 10:51:47 21° 65° (ENE) 10:55:02 145.865
HO-68 01 Sep 10:49:42 10:56:51 67° 291° (WNW) 11:03:58 435.675
CANX-2 01 Sep 10:51:59 10:55:48 32° 291° (WNW) 10:59:33 2200.000
UNISAT 6 01 Sep 10:58:37 11:03:18 72° 74° (ENE) 11:08:02 437.425
BRITE-PL 01 Sep 10:59:49 11:02:54 15° 300° (WNW) 11:05:49 437.365/2234.400
QB50P1 01 Sep 11:01:57 11:05:34 28° 68° (ENE) 11:09:16 145.935-145.965
HUMSAT D 01 Sep 11:10:22 11:13:40 22° 92° (E) 11:17:01 437.325/437.525
SEEDS 01 Sep 11:12:53 11:16:28 27° 292° (WNW) 11:19:58 437.485
DANDE 01 Sep 11:13:09 11:20:08 43° 71° (ENE) 11:28:08 436.750
DX 1 01 Sep 11:14:29 11:16:44 14° 89° (E) 11:19:11 434.975-435.025
Cosmos 2491 01 Sep 11:17:45 11:25:51 40° 291° (WNW) 11:33:55 435.465 / 435.565
Oscar 11 01 Sep 11:20:12 11:24:32 75° 286° (WNW) 11:28:50 145.826/435.025
PCSat 01 Sep 11:24:29 11:29:55 69° 55° (NE) 11:35:20 145.827
UKube-1 01 Sep 11:26:00 11:28:45 17° 91° (E) 11:31:37 .
GOMX 1 01 Sep 11:27:02 11:29:42 14° 301° (WNW) 11:32:09 467.674
TIGRISAT 01 Sep 11:27:04 11:31:43 64° 259° (W) 11:36:25 435.000
PHONESAT 2.4 01 Sep 11:32:29 11:34:16 13° 206° (SSW) 11:35:59 2401.200-2431.200
COMPASS 1 01 Sep 11:34:22 11:37:34 21° 294° (WNW) 11:40:39 437.405
AISAT 01 Sep 11:37:51 11:40:45 17° 90° (E) 11:43:47 437.250
DOVE 4 01 Sep 11:38:08 11:41:15 16° 300° (WNW) 11:44:11 437.250
CUBEBUG 1 01 Sep 11:39:26 11:39:30 10° 86° (E) 11:39:51 437.445
AAUSAT CUBESAT 2 01 Sep 11:44:18 11:47:20 20° 294° (WNW) 11:50:16 437.432
ISS 01 Sep 11:44:35 11:47:33 31° 346° (NNW) 11:50:31 145.825
ANTELSAT 01 Sep 11:44:41 11:49:07 41° 263° (W) 11:53:36 437.575/2403.000
SO-50 01 Sep 11:48:45 11:52:25 21° 248° (WSW) 11:55:55 436.795
AUBIESAT-1 01 Sep 11:58:26 12:02:29 27° 261° (W) 12:06:26 437.475
POLYITAN 1 01 Sep 12:02:56 12:07:10 65° 259° (WSW) 12:11:28 437.675
DELFI C3 01 Sep 12:04:28 12:08:09 35° 290° (WNW) 12:11:46 145.870
ZACube-1 01 Sep 12:04:30 12:08:46 40° 290° (WNW) 12:12:53 437.345
M-CUBED/EXP-1 PRIME 01 Sep 12:04:42 12:08:25 21° 263° (W) 12:11:59 437.505
VELOX 1 01 Sep 12:05:10 12:09:07 31° 96° (E) 12:13:06 145.980
POPSAT HIP 1 01 Sep 12:05:21 12:09:34 62° 258° (WSW) 12:13:51 437.405
DUCHIFAT 1 01 Sep 12:05:22 12:09:34 65° 258° (WSW) 12:13:51 145.980
CUBEBUG 2 01 Sep 12:06:48 12:10:44 26° 294° (WNW) 12:14:30 437.445
FUNcube-1 01 Sep 12:09:44 12:13:55 37° 290° (WNW) 12:17:57 145.935
BUGSAT 1 01 Sep 12:10:56 12:15:00 88° 254° (WSW) 12:19:11 437.445
UWE-3 01 Sep 12:12:44 12:16:41 28° 293° (WNW) 12:20:28 435.000/436.395/437.385
CINEMA 3 01 Sep 12:21:13 12:23:14 12° 302° (WNW) 12:24:59 145.822/145.860
QB50P2 01 Sep 12:22:46 12:26:47 39° 263° (W) 12:30:49 145.880/145.840
NANOSAT C BR1 01 Sep 12:23:22 12:27:23 40° 262° (W) 12:31:25 145.865
CUSAT 1 01 Sep 12:24:48 12:32:20 56° 266° (W) 12:40:18 437.405
QB50P1 01 Sep 12:37:40 12:41:23 28° 265° (W) 12:45:05 145.935-145.965
UNISAT 6 01 Sep 12:38:11 12:40:39 14° 273° (W) 12:42:54 437.425
HO-68 01 Sep 12:39:19 12:43:26 16° 311° (NW) 12:47:14 435.675
50 SAT 01 Sep 12:39:29 12:43:23 89° 291° (WNW) 12:47:14 437.505
Cosmos 2504 01 Sep 12:40:52 12:48:24 35° 275° (W) 12:55:24 435.465 / 435.565
HUMSAT D 01 Sep 12:45:37 12:49:30 35° 290° (WNW) 12:53:19 437.325/437.525
DX 1 01 Sep 12:49:06 12:53:27 61° 287° (WNW) 12:57:46 434.975-435.025
DANDE 01 Sep 12:56:12 13:03:23 49° 267° (W) 13:11:23 436.750
UKube-1 01 Sep 13:00:59 13:05:12 50° 289° (WNW) 13:09:24 .
ESTCUBE 1 01 Sep 13:01:48 13:06:20 90° 197° (SSW) 13:10:50 437.505/2401.250
SPROUT 01 Sep 13:05:56 13:09:38 27° 94° (E) 13:13:23 437.525
PCSat 01 Sep 13:09:04 13:12:51 19° 253° (WSW) 13:16:27 145.827
CUBEBUG 1 01 Sep 13:12:06 13:16:33 85° 284° (WNW) 13:20:59 437.445
AISAT 01 Sep 13:13:18 13:17:40 52° 288° (WNW) 13:22:01 437.250
GONETS M04 01 Sep 13:18:01 13:25:11 28° 62° (ENE) 13:32:35
Oscar 19 01 Sep 13:19:04 13:23:47 38° 68° (ENE) 13:28:36 437.125/150
ISS 01 Sep 13:21:46 13:24:34 26° 6° (N) 13:27:23 145.825
JAS-2 01 Sep 13:22:26 13:26:15 15° 50° (NE) 13:30:25 435.910
AO-7 01 Sep 13:33:46 13:36:08 12° 37° (NE) 13:38:54 29.400- 29.500
VELOX 1 01 Sep 13:41:44 13:45:37 29° 293° (WNW) 13:49:26 145.980
Cosmos 2499 01 Sep 13:49:19 13:52:02 12° 46° (NE) 13:55:17 435.465 / 435.565
SWISSCUBE 01 Sep 14:03:05 14:05:02 13° 87° (E) 14:07:14 437.505
Gurwin Techsat 1B 01 Sep 14:04:41 14:09:20 33° 66° (ENE) 14:14:05 435.225
TISAT 1 01 Sep 14:07:22 14:11:40 70° 102° (ESE) 14:15:55 437.305
CUSAT 1 01 Sep 14:11:07 14:13:45 11° 281° (WNW) 14:15:46 437.405
ITAMSAT 1 01 Sep 14:19:15 14:23:55 36° 67° (ENE) 14:28:39 435.822/435.867
ITUPSAT 1 01 Sep 14:40:22 14:44:21 26° 94° (E) 14:48:23 437.325
ESTCUBE 1 01 Sep 14:40:59 14:42:34 11° 301° (WNW) 14:43:56 437.505/2401.250
SPROUT 01 Sep 14:41:52 14:45:43 31° 292° (WNW) 14:49:30 437.525
CUBEBUG 1 01 Sep 14:51:16 14:52:15 10° 301° (WNW) 14:52:59 437.445
ISS 01 Sep 14:58:10 15:01:25 62° 25° (NNE) 15:04:39 145.825
Oscar 19 01 Sep 14:58:42 15:03:14 30° 266° (W) 15:07:45 437.125/150
JAS-2 01 Sep 15:02:20 15:09:52 59° 69° (ENE) 15:17:33 435.910
BEESAT 01 Sep 15:12:44 15:17:25 55° 100° (E) 15:22:06 436.000
GONETS M04 01 Sep 15:14:13 15:23:00 73° 265° (W) 15:31:46
AO-7 01 Sep 15:19:16 15:26:53 43° 60° (ENE) 15:34:36 29.400- 29.500
SWISSCUBE 01 Sep 15:38:47 15:43:33 77° 285° (WNW) 15:48:18 437.505
Cosmos 2499 01 Sep 15:39:29 15:47:58 52° 73° (ENE) 15:55:56 435.465 / 435.565
Gurwin Techsat 1B 01 Sep 15:44:24 15:49:17 36° 264° (W) 15:54:10 435.225
TISAT 1 01 Sep 15:44:45 15:46:55 13° 298° (WNW) 15:48:55 437.305
BEESAT 3 01 Sep 15:49:54 15:53:56 69° 123° (ESE) 15:58:01 437.485
STARS 01 Sep 15:54:18 15:56:53 16° 89° (E) 15:59:39 437.465
ITAMSAT 1 01 Sep 15:58:52 16:03:28 31° 265° (W) 16:08:03 435.822/435.867
BEESAT 2 01 Sep 16:02:57 16:07:01 70° 123° (ESE) 16:11:08 435.950
KKS-1 01 Sep 16:13:26 16:17:41 40° 98° (E) 16:21:54 437.445
ITUPSAT 1 01 Sep 16:17:57 16:22:20 37° 292° (WNW) 16:26:41 437.325
HORYU 2 01 Sep 16:24:47 16:29:16 73° 74° (ENE) 16:33:47 437.375
ISS 01 Sep 16:35:03 16:37:36 21° 223° (SW) 16:40:07 145.825
RS-15 01 Sep 16:38:03 16:48:27 55° 114° (ESE) 16:59:24 29.354- 29.394
AIST 2 01 Sep 16:44:03 16:47:59 39° 118° (ESE) 16:51:59 435.215
JAS-2 01 Sep 16:48:17 16:55:15 34° 269° (W) 17:02:12 435.910
BEESAT 01 Sep 16:51:30 16:54:54 19° 297° (WNW) 16:58:10 436.000
AO-7 01 Sep 17:11:33 17:19:37 50° 260° (W) 17:27:40 29.400- 29.500
GONETS M04 01 Sep 17:13:44 17:18:27 15° 285° (WNW) 17:22:36
SWISSCUBE 01 Sep 17:19:27 17:20:40 11° 303° (WNW) 17:21:37 437.505
STARS 01 Sep 17:29:22 17:33:45 56° 288° (WNW) 17:38:06 437.465
BEESAT 3 01 Sep 17:29:23 17:32:18 18° 322° (NW) 17:35:09 437.485
Cosmos 2499 01 Sep 17:33:06 17:40:54 38° 274° (W) 17:48:06 435.465 / 435.565
BEESAT 2 01 Sep 17:42:35 17:45:31 18° 323° (NW) 17:48:22 435.950
Cubesat XI-IV 01 Sep 17:43:41 17:47:49 24° 63° (ENE) 17:52:04 437.490
KKS-1 01 Sep 17:50:30 17:54:06 23° 295° (WNW) 17:57:36 437.445
HORYU 2 01 Sep 18:04:30 18:06:30 12° 273° (W) 18:08:17 437.375
MOZHAYETS 4 01 Sep 18:07:21 18:11:56 87° 284° (WNW) 18:16:30
AIST 2 01 Sep 18:22:57 18:26:40 28° 317° (NW) 18:30:20 435.215
CUTE-I 01 Sep 18:27:11 18:32:20 54° 71° (ENE) 18:37:31 437.470
CUBESAT XI-V 01 Sep 18:27:28 18:30:03 15° 88° (E) 18:32:48 437.345
RS-15 01 Sep 18:50:18 19:01:05 53° 320° (NW) 19:12:17 29.354- 29.394
AIST 1 01 Sep 18:50:24 18:53:18 18° 68° (ENE) 18:56:19
BRITE-PL 01 Sep 18:56:29 18:59:17 17° 61° (ENE) 19:02:20 437.365/2234.400
O/OREOS (USA 219) 01 Sep 19:15:36 19:19:39 34° 106° (ESE) 19:23:49 437.305
GOMX 1 01 Sep 19:21:01 19:24:04 18° 61° (ENE) 19:27:25 467.674
Cubesat XI-IV 01 Sep 19:22:26 19:27:38 52° 260° (W) 19:32:50 437.490
Cosmos 2491 01 Sep 19:28:19 19:35:25 28° 62° (ENE) 19:42:45 435.465 / 435.565
DOVE 4 01 Sep 19:31:13 19:33:45 15° 59° (ENE) 19:36:32 437.250
HO-68 01 Sep 19:34:10 19:39:44 26° 57° (ENE) 19:45:29 435.675
YUBILEINY 01 Sep 19:46:00 19:46:56 10° 71° (ENE) 19:48:36 435.215
MOZHAYETS 4 01 Sep 19:47:00 19:48:30 11° 301° (WNW) 19:49:47
CUTE 1.7 + AOD 2 01 Sep 19:58:09 20:00:42 16° 64° (ENE) 20:03:23 437.475
CUBESAT XI-V 01 Sep 20:03:22 20:07:58 63° 286° (WNW) 20:12:34 437.345
PRISM 01 Sep 20:08:10 20:11:34 25° 95° (E) 20:15:01 437.425
CUTE-I 01 Sep 20:08:41 20:12:47 22° 269° (W) 20:16:46 437.470
CINEMA 3 01 Sep 20:10:14 20:13:03 16° 61° (ENE) 20:16:06 145.822/145.860
CANX-2 01 Sep 20:11:20 20:14:43 23° 67° (ENE) 20:18:10 2200.000
STRAND 1 01 Sep 20:13:00 20:17:51 43° 98° (E) 20:22:44 437.568
AIST 1 01 Sep 20:27:05 20:31:14 45° 266° (W) 20:35:23
SEEDS 01 Sep 20:31:03 20:34:35 27° 68° (ENE) 20:38:11 437.485
BRITE-PL 01 Sep 20:32:56 20:37:17 60° 260° (W) 20:42:02 437.365/2234.400
Oscar 11 01 Sep 20:43:29 20:45:16 13° 61° (ENE) 20:47:14 145.826/435.025
COMPASS 1 01 Sep 20:51:11 20:54:58 33° 70° (ENE) 20:58:47 437.405
O/OREOS (USA 219) 01 Sep 20:55:09 20:59:08 29° 305° (NW) 21:03:07 437.305
GOMX 1 01 Sep 20:57:13 21:01:42 59° 261° (W) 21:06:34 467.674
AAUSAT CUBESAT 2 01 Sep 21:00:32 21:04:21 35° 70° (ENE) 21:08:12 437.432
DOVE 4 01 Sep 21:06:10 21:10:49 78° 258° (WSW) 21:15:50 437.250
RS-15 01 Sep 21:07:23 21:16:52 29° 352° (N) 21:26:41 29.354- 29.394
DELFI C3 01 Sep 21:19:25 21:22:03 17° 65° (ENE) 21:24:48 145.870
HO-68 01 Sep 21:19:43 21:26:53 74° 255° (WSW) 21:34:07 435.675
Cosmos 2491 01 Sep 21:24:32 21:33:16 73° 265° (W) 21:41:59 435.465 / 435.565
ZACube-1 01 Sep 21:26:30 21:30:05 23° 66° (ENE) 21:33:46 437.345
CUBEBUG 2 01 Sep 21:29:33 21:33:54 40° 70° (ENE) 21:38:22 437.445
FUNcube-1 01 Sep 21:31:20 21:35:01 25° 66° (ENE) 21:38:49 145.935
CUTE 1.7 + AOD 2 01 Sep 21:32:00 21:36:13 56° 260° (W) 21:40:26 437.475
YUBILEINY 01 Sep 21:33:29 21:41:57 57° 91° (E) 21:50:33 435.215
UWE-3 01 Sep 21:34:45 21:38:56 36° 69° (ENE) 21:43:14 435.000/436.395/437.385
PRISM 01 Sep 21:43:23 21:47:00 30° 292° (WNW) 21:50:35 437.425
CINEMA 3 01 Sep 21:44:56 21:49:40 72° 259° (W) 21:54:37 145.822/145.860
CANX-2 01 Sep 21:46:31 21:50:29 35° 264° (W) 21:54:26 2200.000
STRAND 1 01 Sep 21:52:37 21:56:53 27° 295° (WNW) 22:01:03 437.568
HUMSAT D 01 Sep 22:03:59 22:07:17 22° 66° (ENE) 22:10:40 437.325/437.525
SEEDS 01 Sep 22:06:31 22:10:18 30° 265° (W) 22:14:03 437.485
DX 1 01 Sep 22:12:04 22:14:50 17° 63° (ENE) 22:17:43 434.975-435.025
